Time,TemperatureF,DewpointF,PressureIn,WindDirection,WindDirectionDegrees,WindSpeedMPH,WindSpeedGustMPH,Humidity,HourlyPrecipIn,Conditions,Clouds,dailyrainin,SoftwareType,DateUTC
2013-01-10 00:01:00,32.7,4.7,29.79,SSW,208,0.0,0.0,30,0.00,,,0.00,VWS V14.01,2013-01-10 08:01:00,
2013-01-10 00:07:00,32.5,4.6,29.79,South,181,0.0,0.0,30,0.00,,,0.00,VWS V14.01,2013-01-10 08:07:00,
2013-01-10 00:12:00,32.5,5.3,29.79,South,181,0.0,0.0,31,0.00,,,0.00,VWS V14.01,2013-01-10 08:12:00,
2013-01-10 00:17:00,32.4,5.1,29.79,South,181,0.0,0.0,31,0.00,,,0.00,VWS V14.01,2013-01-10 08:17:00,
2013-01-10 00:23:00,32.4,4.4,29.79,South,181,0.0,0.0,30,0.00,,,0.00,VWS V14.01,2013-01-10 08:23:00,
2013-01-10 00:29:00,32.4,4.4,29.79,North,357,0.0,0.0,30,0.00,,,0.00,VWS V14.01,2013-01-10 08:29:00,
2013-01-10 00:35:00,32.5,4.6,29.79,North,357,0.0,0.0,30,0.00,,,0.00,VWS V14.01,2013-01-10 08:35:00,
2013-01-10 00:40:00,32.4,4.4,29.79,North,357,0.0,0.0,30,0.00,,,0.00,VWS V14.01,2013-01-10 08:40:00,
2013-01-10 00:45:00,32.2,4.2,29.79,North,357,0.0,0.0,30,0.00,,,0.00,VWS V14.01,2013-01-10 08:45:00,
2013-01-10 00:50:00,32.2,4.2,29.79,North,357,0.0,0.0,30,0.00,,,0.00,VWS V14.01,2013-01-10 08:50:00,
2013-01-10 00:56:00,32.2,4.2,29.79,North,357,0.0,0.0,30,0.00,,,0.00,VWS V14.01,2013-01-10 08:56:00,
2013-01-10 01:01:00,32.2,5.0,29.79,North,357,0.0,0.0,31,0.00,,,0.00,VWS V14.01,2013-01-10 09:01:00,
2013-01-10 01:06:00,32.2,4.2,29.79,North,357,0.0,0.0,30,0.00,,,0.00,VWS V14.01,2013-01-10 09:06:00,
2013-01-10 01:12:00,32.2,5.0,29.79,North,357,0.0,0.0,31,0.00,,,0.00,VWS V14.01,2013-01-10 09:12:00,
2013-01-10 01:17:00,32.4,4.4,29.79,North,357,0.0,0.0,30,0.00,,,0.00,VWS V14.01,2013-01-10 09:17:00,
2013-01-10 01:23:00,32.2,4.2,29.79,North,357,0.0,0.0,30,0.00,,,0.00,VWS V14.01,2013-01-10 09:23:00,
2013-01-10 01:29:00,32.4,4.4,29.79,North,357,0.0,0.0,30,0.00,,,0.00,VWS V14.01,2013-01-10 09:29:00,
2013-01-10 01:34:00,32.5,4.6,29.79,North,357,0.0,0.0,30,0.00,,,0.00,VWS V14.01,2013-01-10 09:34:00,
2013-01-10 01:39:00,32.2,4.2,29.82,SW,216,0.0,0.0,30,0.00,,,0.00,VWS V14.01,2013-01-10 09:39:00,
2013-01-10 01:45:00,33.1,5.0,29.82,SSW,198,0.0,0.0,30,0.00,,,0.00,VWS V14.01,2013-01-10 09:45:00,
2013-01-10 01:50:00,32.9,4.9,29.82,SW,214,0.0,0.0,30,0.00,,,0.00,VWS V14.01,2013-01-10 09:50:00,
2013-01-10 01:55:00,32.7,4.7,29.82,SW,233,0.0,0.0,30,0.00,,,0.00,VWS V14.01,2013-01-10 09:55:00,
2013-01-10 02:01:00,32.5,4.6,29.82,SW,227,0.0,0.0,30,0.00,,,0.00,VWS V14.01,2013-01-10 10:01:00,
2013-01-10 02:07:00,32.5,4.6,29.82,SSW,200,0.0,0.0,30,0.00,,,0.00,VWS V14.01,2013-01-10 10:07:00,
2013-01-10 02:12:00,32.4,4.4,29.82,SSW,200,0.0,0.0,30,0.00,,,0.00,VWS V14.01,2013-01-10 10:12:00,
2013-01-10 02:17:00,32.0,4.1,29.82,SSW,200,0.0,0.0,30,0.00,,,0.00,VWS V14.01,2013-01-10 10:17:00,
2013-01-10 02:22:00,31.6,3.8,29.82,SSW,200,0.0,0.0,30,0.00,,,0.00,VWS V14.01,2013-01-10 10:22:00,
2013-01-10 02:28:00,31.5,4.3,29.82,WSW,253,0.0,0.0,31,0.00,,,0.00,VWS V14.01,2013-01-10 10:28:00,
2013-01-10 02:33:00,31.3,4.2,29.82,SW,227,0.0,0.0,31,0.00,,,0.00,VWS V14.01,2013-01-10 10:33:00,
2013-01-10 02:39:00,31.3,4.2,29.82,SW,221,0.0,0.0,31,0.00,,,0.00,VWS V14.01,2013-01-10 10:39:00,
2013-01-10 02:44:00,31.5,3.6,29.82,SW,224,0.0,0.0,30,0.00,,,0.00,VWS V14.01,2013-01-10 10:44:00,
2013-01-10 02:49:00,31.6,3.8,29.82,SW,221,0.0,0.0,30,0.00,,,0.00,VWS V14.01,2013-01-10 10:49:00,
2013-01-10 02:55:00,31.5,3.6,29.82,West,259,0.0,0.0,30,0.00,,,0.00,VWS V14.01,2013-01-10 10:55:00,
2013-01-10 03:00:00,31.5,3.6,29.82,SW,224,0.0,0.0,30,0.00,,,0.00,VWS V14.01,2013-01-10 11:00:00,
2013-01-10 03:05:00,31.6,3.8,29.82,SSW,198,0.0,0.0,30,0.00,,,0.00,VWS V14.01,2013-01-10 11:05:00,
2013-01-10 03:10:00,31.5,3.6,29.82,SSW,209,0.0,0.0,30,0.00,,,0.00,VWS V14.01,2013-01-10 11:10:00,
2013-01-10 03:15:00,31.3,3.5,29.82,WSW,248,0.0,0.0,30,0.00,,,0.00,VWS V14.01,2013-01-10 11:15:00,
2013-01-10 03:21:00,31.1,3.3,29.82,WSW,248,0.0,0.0,30,0.00,,,0.00,VWS V14.01,2013-01-10 11:21:00,
2013-01-10 03:26:00,30.9,3.1,29.82,WSW,250,0.0,0.0,30,0.00,,,0.00,VWS V14.01,2013-01-10 11:26:00,
2013-01-10 03:32:00,30.9,3.1,29.82,WSW,250,0.0,0.0,30,0.00,,,0.00,VWS V14.01,2013-01-10 11:32:00,
2013-01-10 03:38:00,30.7,3.0,29.82,WSW,250,0.0,0.0,30,0.00,,,0.00,VWS V14.01,2013-01-10 11:38:00,
2013-01-10 03:43:00,30.6,2.8,29.82,WSW,250,0.0,0.0,30,0.00,,,0.00,VWS V14.01,2013-01-10 11:43:00,
2013-01-10 03:49:00,30.4,2.7,29.82,WSW,250,0.0,0.0,30,0.00,,,0.00,VWS V14.01,2013-01-10 11:49:00,
2013-01-10 03:54:00,30.2,3.2,29.82,WSW,250,0.0,0.0,31,0.00,,,0.00,VWS V14.01,2013-01-10 11:54:00,
2013-01-10 04:00:00,30.2,3.2,29.82,WSW,250,0.0,0.0,31,0.00,,,0.00,VWS V14.01,2013-01-10 12:00:00,
2013-01-10 04:06:00,30.2,3.2,29.82,West,261,0.0,0.0,31,0.00,,,0.00,VWS V14.01,2013-01-10 12:06:00,
2013-01-10 04:11:00,30.2,3.2,29.82,SW,226,0.0,0.0,31,0.00,,,0.00,VWS V14.01,2013-01-10 12:11:00,
2013-01-10 04:17:00,29.8,2.9,29.82,SW,226,0.0,0.0,31,0.00,,,0.00,VWS V14.01,2013-01-10 12:17:00,
2013-01-10 04:22:00,29.7,2.7,29.82,SW,226,0.0,0.0,31,0.00,,,0.00,VWS V14.01,2013-01-10 12:22:00,
2013-01-10 04:27:00,29.5,2.6,29.82,SW,226,0.0,0.0,31,0.00,,,0.00,VWS V14.01,2013-01-10 12:27:00,
2013-01-10 04:32:00,30.0,3.1,29.82,West,272,0.0,0.0,31,0.00,,,0.00,VWS V14.01,2013-01-10 12:32:00,
2013-01-10 04:38:00,30.0,3.1,29.82,West,272,0.0,0.0,31,0.00,,,0.00,VWS V14.01,2013-01-10 12:38:00,
2013-01-10 04:43:00,29.8,2.9,29.82,West,272,0.0,0.0,31,0.00,,,0.00,VWS V14.01,2013-01-10 12:43:00,
2013-01-10 04:49:00,29.7,2.7,29.82,WNW,283,0.0,0.0,31,0.00,,,0.00,VWS V14.01,2013-01-10 12:49:00,
2013-01-10 04:54:00,29.7,2.7,29.82,SSW,207,0.0,0.0,31,0.00,,,0.00,VWS V14.01,2013-01-10 12:54:00,
2013-01-10 05:00:00,29.7,2.7,29.82,SW,217,0.0,0.0,31,0.00,,,0.00,VWS V14.01,2013-01-10 13:00:00,
2013-01-10 05:05:00,29.5,2.6,29.82,SW,230,0.0,0.0,31,0.00,,,0.00,VWS V14.01,2013-01-10 13:05:00,
2013-01-10 05:11:00,29.5,2.6,29.82,WSW,246,0.0,0.0,31,0.00,,,0.00,VWS V14.01,2013-01-10 13:11:00,
2013-01-10 05:16:00,29.7,2.7,29.82,SW,220,0.0,0.0,31,0.00,,,0.00,VWS V14.01,2013-01-10 13:16:00,
2013-01-10 05:22:00,29.5,2.6,29.82,WSW,251,0.0,0.0,31,0.00,,,0.00,VWS V14.01,2013-01-10 13:22:00,
2013-01-10 05:27:00,29.5,2.6,29.82,SW,225,0.0,0.0,31,0.00,,,0.00,VWS V14.01,2013-01-10 13:27:00,
2013-01-10 05:32:00,29.3,2.4,29.82,West,264,0.0,0.0,31,0.00,,,0.00,VWS V14.01,2013-01-10 13:32:00,
2013-01-10 05:37:00,29.3,2.4,29.82,SW,216,0.0,0.0,31,0.00,,,0.00,VWS V14.01,2013-01-10 13:37:00,
2013-01-10 05:43:00,29.3,2.4,29.82,SW,231,0.0,0.0,31,0.00,,,0.00,VWS V14.01,2013-01-10 13:43:00,
2013-01-10 05:49:00,29.1,2.3,29.82,SW,231,0.0,0.0,31,0.00,,,0.00,VWS V14.01,2013-01-10 13:49:00,
2013-01-10 05:54:00,28.9,2.1,29.82,SW,230,0.0,0.0,31,0.00,,,0.00,VWS V14.01,2013-01-10 13:54:00,
2013-01-10 06:00:00,28.9,2.1,29.82,SW,227,0.0,0.0,31,0.00,,,0.00,VWS V14.01,2013-01-10 14:00:00,
2013-01-10 06:05:00,28.9,2.1,29.82,WSW,237,0.0,0.0,31,0.00,,,0.00,VWS V14.01,2013-01-10 14:05:00,
2013-01-10 06:11:00,28.9,2.1,29.85,SW,234,0.0,0.0,31,0.00,,,0.00,VWS V14.01,2013-01-10 14:11:00,
2013-01-10 06:16:00,28.9,2.1,29.85,WSW,258,0.0,0.0,31,0.00,,,0.00,VWS V14.01,2013-01-10 14:16:00,
2013-01-10 06:21:00,28.9,2.1,29.85,SW,228,0.0,0.0,31,0.00,,,0.00,VWS V14.01,2013-01-10 14:21:00,
2013-01-10 06:27:00,28.9,2.1,29.85,West,260,0.0,0.0,31,0.00,,,0.00,VWS V14.01,2013-01-10 14:27:00,
2013-01-10 06:33:00,29.1,2.3,29.85,WSW,253,0.0,0.0,31,0.00,,,0.00,VWS V14.01,2013-01-10 14:33:00,
2013-01-10 06:39:00,28.9,2.1,29.85,SSW,208,0.0,0.0,31,0.00,,,0.00,VWS V14.01,2013-01-10 14:39:00,
2013-01-10 06:45:00,28.8,2.0,29.85,NW,315,0.0,0.0,31,0.00,,,0.00,VWS V14.01,2013-01-10 14:45:00,
2013-01-10 06:51:00,28.8,2.0,29.85,SSW,207,0.0,0.0,31,0.00,,,0.00,VWS V14.01,2013-01-10 14:51:00,
2013-01-10 06:56:00,28.6,1.8,29.85,SW,218,0.0,0.0,31,0.00,,,0.00,VWS V14.01,2013-01-10 14:56:00,
2013-01-10 07:02:00,28.6,1.8,29.85,SW,223,0.0,0.0,31,0.00,,,0.00,VWS V14.01,2013-01-10 15:02:00,
2013-01-10 07:08:00,28.9,2.1,29.85,SSW,207,0.0,0.0,31,0.00,,,0.00,VWS V14.01,2013-01-10 15:08:00,
2013-01-10 07:13:00,28.8,2.0,29.85,WSW,241,0.0,0.0,31,0.00,,,0.00,VWS V14.01,2013-01-10 15:13:00,
2013-01-10 07:19:00,28.6,1.8,29.85,West,260,0.0,0.0,31,0.00,,,0.00,VWS V14.01,2013-01-10 15:19:00,
2013-01-10 07:24:00,28.8,2.0,29.85,West,260,0.0,0.0,31,0.00,,,0.00,VWS V14.01,2013-01-10 15:24:00,
2013-01-10 07:29:00,28.8,2.0,29.85,SW,225,0.0,0.0,31,0.00,,,0.00,VWS V14.01,2013-01-10 15:29:00,
2013-01-10 07:34:00,28.6,1.8,29.85,SW,227,0.0,0.0,31,0.00,,,0.00,VWS V14.01,2013-01-10 15:34:00,
2013-01-10 07:39:00,28.6,1.8,29.88,NW,305,0.0,0.0,31,0.00,,,0.00,VWS V14.01,2013-01-10 15:39:00,
2013-01-10 07:45:00,28.4,1.6,29.88,WSW,239,0.0,0.0,31,0.00,,,0.00,VWS V14.01,2013-01-10 15:45:00,
2013-01-10 07:51:00,28.2,1.5,29.88,West,264,0.0,0.0,31,0.00,,,0.00,VWS V14.01,2013-01-10 15:51:00,
2013-01-10 07:57:00,28.2,1.5,29.88,SW,229,0.0,0.0,31,0.00,,,0.00,VWS V14.01,2013-01-10 15:57:00,
2013-01-10 08:03:00,28.2,1.5,29.88,SW,227,0.0,0.0,31,0.00,,,0.00,VWS V14.01,2013-01-10 16:03:00,
2013-01-10 08:08:00,28.0,1.3,29.88,SW,226,0.0,0.0,31,0.00,,,0.00,VWS V14.01,2013-01-10 16:08:00,
2013-01-10 08:13:00,28.0,1.3,29.88,WNW,294,0.0,0.0,31,0.00,,,0.00,VWS V14.01,2013-01-10 16:13:00,
2013-01-10 08:18:00,28.0,1.3,29.88,WSW,254,0.0,0.0,31,0.00,,,0.00,VWS V14.01,2013-01-10 16:18:00,
2013-01-10 08:24:00,28.0,1.3,29.88,SW,231,0.0,0.0,31,0.00,,,0.00,VWS V14.01,2013-01-10 16:24:00,
2013-01-10 08:29:00,27.9,1.2,29.88,WSW,246,0.0,0.0,31,0.00,,,0.00,VWS V14.01,2013-01-10 16:29:00,
2013-01-10 08:34:00,28.0,1.3,29.88,SW,223,0.0,0.0,31,0.00,,,0.00,VWS V14.01,2013-01-10 16:34:00,
2013-01-10 08:39:00,27.9,1.2,29.88,WSW,244,0.0,0.0,31,0.00,,,0.00,VWS V14.01,2013-01-10 16:39:00,
2013-01-10 08:44:00,27.9,1.2,29.88,WSW,256,0.0,0.0,31,0.00,,,0.00,VWS V14.01,2013-01-10 16:44:00,
2013-01-10 08:50:00,28.2,1.5,29.88,NW,319,0.0,0.0,31,0.00,,,0.00,VWS V14.01,2013-01-10 16:50:00,
2013-01-10 08:55:00,28.4,1.6,29.88,NW,319,0.0,0.0,31,0.00,,,0.00,VWS V14.01,2013-01-10 16:55:00,
2013-01-10 09:00:00,28.8,2.0,29.88,WSW,244,0.0,0.0,31,0.00,,,0.00,VWS V14.01,2013-01-10 17:00:00,
2013-01-10 09:05:00,29.5,2.6,29.88,SW,214,0.0,0.0,31,0.00,,,0.00,VWS V14.01,2013-01-10 17:05:00,
2013-01-10 09:11:00,29.8,2.9,29.88,WSW,244,0.0,0.0,31,0.00,,,0.00,VWS V14.01,2013-01-10 17:11:00,
2013-01-10 09:16:00,30.9,3.1,29.88,SSW,206,0.0,0.0,30,0.00,,,0.00,VWS V14.01,2013-01-10 17:16:00,
2013-01-10 09:22:00,31.3,3.5,29.88,South,190,0.0,0.0,30,0.00,,,0.00,VWS V14.01,2013-01-10 17:22:00,
2013-01-10 09:28:00,31.5,3.6,29.88,SSW,198,0.0,0.0,30,0.00,,,0.00,VWS V14.01,2013-01-10 17:28:00,
2013-01-10 09:33:00,31.8,3.9,29.88,SW,236,0.0,0.0,30,0.00,,,0.00,VWS V14.01,2013-01-10 17:33:00,
2013-01-10 09:39:00,31.8,3.9,29.88,NW,321,0.0,0.0,30,0.00,,,0.00,VWS V14.01,2013-01-10 17:39:00,
2013-01-10 09:44:00,32.4,4.4,29.88,SW,233,4.0,5.4,30,0.00,,,0.00,VWS V14.01,2013-01-10 17:44:00,
2013-01-10 09:49:00,32.9,4.9,29.88,SSW,204,3.1,4.5,30,0.00,,,0.00,VWS V14.01,2013-01-10 17:49:00,
2013-01-10 09:55:00,33.4,5.3,29.88,SW,222,8.7,8.7,30,0.00,,,0.00,VWS V14.01,2013-01-10 17:55:00,
2013-01-10 10:00:00,33.6,5.5,29.88,SW,220,6.7,7.6,30,0.00,,,0.00,VWS V14.01,2013-01-10 18:00:00,
2013-01-10 10:05:00,34.0,5.8,29.88,SSW,209,8.3,8.7,30,0.00,,,0.00,VWS V14.01,2013-01-10 18:05:00,
2013-01-10 10:10:00,34.0,5.8,29.88,SSW,210,8.3,10.5,30,0.00,,,0.00,VWS V14.01,2013-01-10 18:10:00,
2013-01-10 10:16:00,34.0,5.8,29.88,SW,220,7.6,8.7,30,0.00,,,0.00,VWS V14.01,2013-01-10 18:16:00,
2013-01-10 10:22:00,34.3,6.1,29.88,SW,214,8.3,9.6,30,0.00,,,0.00,VWS V14.01,2013-01-10 18:22:00,
2013-01-10 10:28:00,34.5,6.3,29.88,WSW,249,8.1,8.3,30,0.00,,,0.00,VWS V14.01,2013-01-10 18:28:00,
2013-01-10 10:33:00,34.7,6.4,29.88,SSW,212,8.3,8.3,30,0.00,,,0.00,VWS V14.01,2013-01-10 18:33:00,
2013-01-10 10:39:00,35.2,6.9,29.88,SSW,207,10.1,10.1,30,0.00,,,0.00,VWS V14.01,2013-01-10 18:39:00,
2013-01-10 10:45:00,35.2,6.9,29.88,SW,226,5.8,10.5,30,0.00,,,0.00,VWS V14.01,2013-01-10 18:45:00,
2013-01-10 10:50:00,35.8,7.4,29.88,SW,224,4.0,8.3,30,0.00,,,0.00,VWS V14.01,2013-01-10 18:50:00,
2013-01-10 10:57:00,36.7,8.2,29.88,WSW,253,3.6,8.3,30,0.00,,,0.00,VWS V14.01,2013-01-10 18:57:00,
2013-01-10 11:02:00,36.9,8.3,29.88,SW,220,5.4,9.6,30,0.00,,,0.00,VWS V14.01,2013-01-10 19:02:00,
2013-01-10 11:08:00,36.7,8.2,29.88,SW,218,8.1,8.7,30,0.04,,,0.04,VWS V14.01,2013-01-10 19:08:00,
2013-01-10 11:14:00,37.0,7.8,29.88,SSW,205,5.8,8.7,29,0.04,,,0.04,VWS V14.01,2013-01-10 19:14:00,
2013-01-10 11:19:00,37.4,8.1,29.88,SW,221,10.5,10.5,29,0.04,,,0.04,VWS V14.01,2013-01-10 19:19:00,
2013-01-10 11:24:00,37.6,8.2,29.88,SW,223,8.3,10.5,29,0.04,,,0.04,VWS V14.01,2013-01-10 19:24:00,
2013-01-10 11:29:00,37.4,8.1,29.88,SW,224,10.1,12.3,29,0.04,,,0.04,VWS V14.01,2013-01-10 19:29:00,
2013-01-10 11:34:00,37.6,8.2,29.88,SW,229,6.3,10.5,29,0.04,,,0.04,VWS V14.01,2013-01-10 19:34:00,
2013-01-10 11:40:00,37.4,8.1,29.88,WSW,243,3.6,7.6,29,0.04,,,0.04,VWS V14.01,2013-01-10 19:40:00,
2013-01-10 11:45:00,37.2,7.9,29.88,SW,235,8.3,11.0,29,0.04,,,0.04,VWS V14.01,2013-01-10 19:45:00,
2013-01-10 11:50:00,37.0,7.8,29.88,SW,215,8.1,10.1,29,0.04,,,0.04,VWS V14.01,2013-01-10 19:50:00,
2013-01-10 11:55:00,36.3,7.9,29.85,SSW,207,8.1,10.1,30,0.04,,,0.04,VWS V14.01,2013-01-10 19:55:00,
2013-01-10 12:01:00,36.1,7.7,29.85,SSW,213,8.7,8.7,30,0.04,,,0.04,VWS V14.01,2013-01-10 20:01:00,
2013-01-10 12:06:00,37.2,8.6,29.85,SW,215,8.1,8.1,30,0.04,,,0.04,VWS V14.01,2013-01-10 20:06:00,
2013-01-10 12:11:00,36.7,8.2,29.85,SW,230,7.6,10.5,30,0.00,,,0.04,VWS V14.01,2013-01-10 20:11:00,
2013-01-10 12:17:00,37.0,8.5,29.85,SW,233,4.0,12.3,30,0.00,,,0.04,VWS V14.01,2013-01-10 20:17:00,
2013-01-10 12:22:00,37.8,8.4,29.85,SSW,213,8.1,8.1,29,0.00,,,0.04,VWS V14.01,2013-01-10 20:22:00,
2013-01-10 12:28:00,37.9,8.5,29.85,West,264,4.9,6.3,29,0.00,,,0.04,VWS V14.01,2013-01-10 20:28:00,
2013-01-10 12:33:00,37.9,8.5,29.85,SSW,210,4.0,6.3,29,0.00,,,0.04,VWS V14.01,2013-01-10 20:33:00,
2013-01-10 12:38:00,37.8,8.4,29.85,WNW,299,5.4,5.4,29,0.00,,,0.04,VWS V14.01,2013-01-10 20:38:00,
2013-01-10 12:43:00,37.0,7.8,29.85,SW,217,6.3,10.5,29,0.00,,,0.04,VWS V14.01,2013-01-10 20:43:00,
2013-01-10 12:48:00,36.9,7.6,29.85,SSW,200,6.3,7.6,29,0.00,,,0.04,VWS V14.01,2013-01-10 20:48:00,
2013-01-10 12:53:00,36.7,7.4,29.85,WSW,243,4.9,8.3,29,0.00,,,0.04,VWS V14.01,2013-01-10 20:53:00,
2013-01-10 13:00:00,36.5,7.3,29.85,WSW,250,5.8,7.6,29,0.00,,,0.04,VWS V14.01,2013-01-10 21:00:00,
2013-01-10 13:06:00,36.7,7.4,29.85,SSW,207,5.4,8.3,29,0.00,,,0.04,VWS V14.01,2013-01-10 21:06:00,
2013-01-10 13:11:00,36.7,7.4,29.85,SSW,209,4.0,8.7,29,0.00,,,0.04,VWS V14.01,2013-01-10 21:11:00,
2013-01-10 13:17:00,37.0,7.8,29.85,SW,220,11.4,11.4,29,0.00,,,0.04,VWS V14.01,2013-01-10 21:17:00,
2013-01-10 13:22:00,37.2,7.9,29.85,SSW,209,4.5,5.8,29,0.00,,,0.04,VWS V14.01,2013-01-10 21:22:00,
2013-01-10 13:27:00,37.4,8.1,29.85,SSW,211,6.3,6.3,29,0.00,,,0.04,VWS V14.01,2013-01-10 21:27:00,
2013-01-10 13:32:00,37.2,7.9,29.85,South,174,8.1,8.1,29,0.00,,,0.04,VWS V14.01,2013-01-10 21:32:00,
2013-01-10 13:37:00,36.9,7.6,29.85,WSW,242,6.3,10.1,29,0.00,,,0.04,VWS V14.01,2013-01-10 21:37:00,
2013-01-10 13:42:00,37.0,7.8,29.85,South,185,2.7,5.4,29,0.00,,,0.04,VWS V14.01,2013-01-10 21:42:00,
2013-01-10 13:47:00,37.0,7.8,29.85,SW,227,6.3,8.1,29,0.00,,,0.04,VWS V14.01,2013-01-10 21:47:00,
2013-01-10 13:53:00,37.0,7.8,29.85,SSW,205,6.3,7.6,29,0.00,,,0.04,VWS V14.01,2013-01-10 21:53:00,
2013-01-10 13:58:00,36.9,7.6,29.85,West,268,3.6,8.7,29,0.00,,,0.04,VWS V14.01,2013-01-10 21:58:00,
2013-01-10 14:03:00,36.7,7.4,29.85,SSW,208,5.4,6.7,29,0.00,,,0.04,VWS V14.01,2013-01-10 22:03:00,
2013-01-10 14:09:00,36.5,7.3,29.85,SSW,197,6.3,8.3,29,0.00,,,0.04,VWS V14.01,2013-01-10 22:09:00,
2013-01-10 14:14:00,36.5,7.3,29.85,SSW,211,6.3,10.5,29,0.00,,,0.04,VWS V14.01,2013-01-10 22:14:00,
2013-01-10 14:19:00,36.3,7.1,29.85,SSW,203,8.3,8.3,29,0.00,,,0.04,VWS V14.01,2013-01-10 22:19:00,
2013-01-10 14:24:00,36.1,7.0,29.85,NNW,332,0.0,4.0,29,0.00,,,0.04,VWS V14.01,2013-01-10 22:24:00,
2013-01-10 14:29:00,36.0,7.6,29.85,SW,214,4.9,4.9,30,0.00,,,0.04,VWS V14.01,2013-01-10 22:29:00,
2013-01-10 14:35:00,35.8,7.4,29.85,SSW,208,5.4,5.8,30,0.00,,,0.04,VWS V14.01,2013-01-10 22:35:00,
2013-01-10 14:41:00,35.8,7.4,29.85,SSW,207,8.1,8.1,30,0.00,,,0.04,VWS V14.01,2013-01-10 22:41:00,
2013-01-10 14:46:00,35.6,7.2,29.85,SSW,195,3.1,5.8,30,0.00,,,0.04,VWS V14.01,2013-01-10 22:46:00,
2013-01-10 14:52:00,35.4,7.1,29.85,SSW,206,5.4,6.3,30,0.00,,,0.04,VWS V14.01,2013-01-10 22:52:00,
2013-01-10 14:57:00,35.4,7.1,29.85,NW,305,0.0,3.1,30,0.00,,,0.04,VWS V14.01,2013-01-10 22:57:00,
2013-01-10 15:03:00,35.8,7.4,29.85,SSW,205,8.7,8.7,30,0.00,,,0.04,VWS V14.01,2013-01-10 23:03:00,
2013-01-10 15:09:00,35.6,7.2,29.85,SW,229,4.9,11.0,30,0.00,,,0.04,VWS V14.01,2013-01-10 23:09:00,
2013-01-10 15:14:00,35.4,7.1,29.85,SW,222,10.1,11.0,30,0.00,,,0.04,VWS V14.01,2013-01-10 23:14:00,
2013-01-10 15:20:00,35.1,6.8,29.85,WSW,245,5.4,8.7,30,0.00,,,0.04,VWS V14.01,2013-01-10 23:20:00,
2013-01-10 15:26:00,34.7,6.4,29.88,SW,215,8.1,8.1,30,0.00,,,0.04,VWS V14.01,2013-01-10 23:26:00,
2013-01-10 15:31:00,34.5,6.3,29.88,WSW,244,8.1,8.3,30,0.00,,,0.04,VWS V14.01,2013-01-10 23:31:00,
2013-01-10 15:37:00,34.0,5.8,29.88,SW,223,5.8,8.1,30,0.00,,,0.04,VWS V14.01,2013-01-10 23:37:00,
2013-01-10 15:42:00,33.8,5.7,29.88,SW,225,4.0,8.7,30,0.00,,,0.04,VWS V14.01,2013-01-10 23:42:00,
2013-01-10 15:48:00,33.4,5.3,29.88,SW,235,6.3,6.3,30,0.00,,,0.04,VWS V14.01,2013-01-10 23:48:00,
2013-01-10 15:54:00,33.3,5.2,29.88,SSW,211,2.7,7.6,30,0.00,,,0.04,VWS V14.01,2013-01-10 23:54:00,
2013-01-10 16:00:00,33.1,5.0,29.88,West,274,0.0,0.0,30,0.00,,,0.04,VWS V14.01,2013-01-11 00:00:00,
2013-01-10 16:05:00,33.1,5.0,29.88,NW,304,0.0,3.6,30,0.00,,,0.04,VWS V14.01,2013-01-11 00:05:00,
2013-01-10 16:10:00,33.1,5.0,29.88,SSW,202,0.0,0.0,30,0.00,,,0.04,VWS V14.01,2013-01-11 00:10:00,
2013-01-10 16:15:00,32.7,4.7,29.88,SSW,203,0.0,0.0,30,0.00,,,0.04,VWS V14.01,2013-01-11 00:15:00,
2013-01-10 16:22:00,32.7,4.7,29.88,SSW,203,0.0,0.0,30,0.00,,,0.04,VWS V14.01,2013-01-11 00:22:00,
2013-01-10 16:27:00,32.7,4.7,29.88,SSE,160,4.9,5.4,30,0.00,,,0.04,VWS V14.01,2013-01-11 00:27:00,
2013-01-10 16:33:00,32.9,4.9,29.88,SSW,209,0.0,0.0,30,0.00,,,0.04,VWS V14.01,2013-01-11 00:33:00,
2013-01-10 16:37:00,32.9,4.9,29.88,SW,221,0.0,2.7,30,0.00,,,0.04,VWS V14.01,2013-01-11 00:37:00,
2013-01-10 16:44:00,33.1,5.0,29.88,SW,216,0.0,4.0,30,0.00,,,0.04,VWS V14.01,2013-01-11 00:44:00,
2013-01-10 16:50:00,33.4,5.3,29.88,WSW,252,0.0,2.7,30,0.00,,,0.04,VWS V14.01,2013-01-11 00:50:00,
2013-01-10 16:55:00,34.2,6.0,29.88,SSW,205,6.3,6.3,30,0.00,,,0.04,VWS V14.01,2013-01-11 00:55:00,
2013-01-10 17:00:00,34.2,6.0,29.88,SSW,213,5.8,11.0,30,0.00,,,0.04,VWS V14.01,2013-01-11 01:00:00,
2013-01-10 17:05:00,34.0,5.8,29.88,SW,214,2.2,3.6,30,0.00,,,0.04,VWS V14.01,2013-01-11 01:05:00,
2013-01-10 17:10:00,33.3,5.2,29.88,NNW,340,3.6,3.6,30,0.00,,,0.04,VWS V14.01,2013-01-11 01:10:00,
2013-01-10 17:16:00,33.3,5.2,29.88,NW,310,0.0,0.0,30,0.00,,,0.04,VWS V14.01,2013-01-11 01:16:00,
2013-01-10 17:21:00,34.0,5.8,29.88,West,270,0.0,0.0,30,0.00,,,0.04,VWS V14.01,2013-01-11 01:21:00,
2013-01-10 17:26:00,34.0,5.8,29.88,SSE,150,2.7,3.6,30,0.00,,,0.04,VWS V14.01,2013-01-11 01:26:00,
2013-01-10 17:32:00,33.8,5.7,29.88,SSW,213,0.0,0.0,30,0.00,,,0.04,VWS V14.01,2013-01-11 01:32:00,
2013-01-10 17:37:00,33.6,5.5,29.88,NW,304,0.0,2.7,30,0.00,,,0.04,VWS V14.01,2013-01-11 01:37:00,
2013-01-10 17:42:00,33.6,5.5,29.88,WSW,245,0.0,0.0,30,0.00,,,0.04,VWS V14.01,2013-01-11 01:42:00,
2013-01-10 17:47:00,33.6,5.5,29.88,WSW,250,0.0,0.0,30,0.00,,,0.04,VWS V14.01,2013-01-11 01:47:00,
2013-01-10 17:53:00,33.6,5.5,29.88,WSW,256,0.0,0.0,30,0.00,,,0.04,VWS V14.01,2013-01-11 01:53:00,
2013-01-10 17:58:00,33.3,5.2,29.88,NW,308,5.8,7.6,30,0.00,,,0.04,VWS V14.01,2013-01-11 01:58:00,
2013-01-10 18:03:00,32.9,4.9,29.88,West,271,2.7,3.6,30,0.00,,,0.04,VWS V14.01,2013-01-11 02:03:00,
2013-01-10 18:08:00,33.4,5.3,29.88,NW,309,3.6,4.0,30,0.00,,,0.04,VWS V14.01,2013-01-11 02:08:00,
2013-01-10 18:14:00,33.6,5.5,29.88,North,353,0.0,0.0,30,0.00,,,0.04,VWS V14.01,2013-01-11 02:14:00,
2013-01-10 18:19:00,33.6,5.5,29.88,NNW,342,0.0,0.0,30,0.00,,,0.04,VWS V14.01,2013-01-11 02:19:00,
2013-01-10 18:24:00,33.6,5.5,29.88,NNW,341,0.0,0.0,30,0.00,,,0.04,VWS V14.01,2013-01-11 02:24:00,
2013-01-10 18:29:00,33.4,5.3,29.88,NNW,341,0.0,3.1,30,0.00,,,0.04,VWS V14.01,2013-01-11 02:29:00,
2013-01-10 18:35:00,33.6,5.5,29.88,SE,132,0.0,2.7,30,0.00,,,0.04,VWS V14.01,2013-01-11 02:35:00,
2013-01-10 18:40:00,33.6,5.5,29.88,SSW,213,0.0,4.0,30,0.00,,,0.04,VWS V14.01,2013-01-11 02:40:00,
2013-01-10 18:45:00,33.6,5.5,29.88,West,269,2.7,3.6,30,0.00,,,0.04,VWS V14.01,2013-01-11 02:45:00,
2013-01-10 18:51:00,33.4,5.3,29.88,WNW,292,4.0,4.5,30,0.00,,,0.04,VWS V14.01,2013-01-11 02:51:00,
2013-01-10 18:55:00,33.3,5.2,29.88,NW,321,2.7,5.4,30,0.00,,,0.04,VWS V14.01,2013-01-11 02:55:00,
2013-01-10 19:01:00,33.4,5.3,29.88,WNW,285,0.0,2.7,30,0.00,,,0.04,VWS V14.01,2013-01-11 03:01:00,
2013-01-10 19:06:00,33.3,5.2,29.88,West,271,0.0,2.7,30,0.00,,,0.04,VWS V14.01,2013-01-11 03:06:00,
2013-01-10 19:12:00,33.3,5.2,29.88,SW,235,3.1,3.1,30,0.00,,,0.04,VWS V14.01,2013-01-11 03:12:00,
2013-01-10 19:17:00,33.3,5.2,29.88,SW,236,6.3,6.3,30,0.00,,,0.04,VWS V14.01,2013-01-11 03:17:00,
2013-01-10 19:22:00,33.1,5.0,29.88,NNW,340,0.0,5.4,30,0.00,,,0.04,VWS V14.01,2013-01-11 03:22:00,
2013-01-10 19:28:00,33.3,5.2,29.88,NNW,332,4.0,10.5,30,0.00,,,0.04,VWS V14.01,2013-01-11 03:28:00,
2013-01-10 19:33:00,32.9,4.9,29.88,SW,221,2.7,8.7,30,0.00,,,0.04,VWS V14.01,2013-01-11 03:33:00,
2013-01-10 19:39:00,32.9,4.9,29.88,SSW,194,6.3,8.1,30,0.00,,,0.04,VWS V14.01,2013-01-11 03:39:00,
2013-01-10 19:44:00,32.7,4.7,29.88,WSW,251,0.0,2.7,30,0.00,,,0.04,VWS V14.01,2013-01-11 03:44:00,
2013-01-10 19:49:00,32.5,4.6,29.88,West,266,0.0,0.0,30,0.00,,,0.04,VWS V14.01,2013-01-11 03:49:00,
2013-01-10 19:54:00,32.0,4.1,29.88,West,266,0.0,0.0,30,0.00,,,0.04,VWS V14.01,2013-01-11 03:54:00,
2013-01-10 20:00:00,31.6,3.8,29.88,West,268,0.0,0.0,30,0.00,,,0.04,VWS V14.01,2013-01-11 04:00:00,
2013-01-10 20:07:00,31.6,3.8,29.88,NW,322,0.0,0.0,30,0.00,,,0.04,VWS V14.01,2013-01-11 04:07:00,
2013-01-10 20:13:00,31.3,3.5,29.88,NW,322,0.0,0.0,30,0.00,,,0.04,VWS V14.01,2013-01-11 04:13:00,
2013-01-10 20:18:00,31.6,3.8,29.88,NW,322,0.0,0.0,30,0.00,,,0.04,VWS V14.01,2013-01-11 04:18:00,
2013-01-10 20:23:00,31.5,3.6,29.88,NW,322,0.0,0.0,30,0.00,,,0.04,VWS V14.01,2013-01-11 04:23:00,
2013-01-10 20:29:00,31.6,3.8,29.88,NW,322,0.0,0.0,30,0.00,,,0.04,VWS V14.01,2013-01-11 04:29:00,
2013-01-10 20:35:00,31.8,3.9,29.88,SSE,168,0.0,0.0,30,0.00,,,0.04,VWS V14.01,2013-01-11 04:35:00,
2013-01-10 20:41:00,31.8,3.9,29.88,NW,312,0.0,0.0,30,0.00,,,0.04,VWS V14.01,2013-01-11 04:41:00,
2013-01-10 20:46:00,32.0,4.1,29.88,NW,312,0.0,0.0,30,0.00,,,0.04,VWS V14.01,2013-01-11 04:46:00,
2013-01-10 20:51:00,31.6,3.8,29.88,SW,236,0.0,0.0,30,0.00,,,0.04,VWS V14.01,2013-01-11 04:51:00,
2013-01-10 20:56:00,31.5,3.6,29.88,WSW,250,0.0,0.0,30,0.00,,,0.04,VWS V14.01,2013-01-11 04:56:00,
2013-01-10 21:02:00,31.6,3.8,29.88,West,278,0.0,0.0,30,0.00,,,0.04,VWS V14.01,2013-01-11 05:02:00,
2013-01-10 21:04:00,31.6,3.8,29.88,West,278,0.0,0.0,30,0.00,,,0.04,VWS V14.01,2013-01-11 05:04:00,
2013-01-10 21:07:00,31.8,3.9,29.88,West,278,0.0,0.0,30,0.00,,,0.04,VWS V14.01,2013-01-11 05:07:00,
2013-01-10 21:12:00,31.6,3.8,29.88,SW,223,0.0,0.0,30,0.00,,,0.04,VWS V14.01,2013-01-11 05:12:00,
2013-01-10 21:18:00,31.5,3.6,29.88,WNW,285,0.0,0.0,30,0.00,,,0.04,VWS V14.01,2013-01-11 05:18:00,
2013-01-10 21:23:00,31.5,3.6,29.91,WNW,298,0.0,0.0,30,0.00,,,0.04,VWS V14.01,2013-01-11 05:23:00,
2013-01-10 21:28:00,31.3,3.5,29.91,WNW,291,0.0,0.0,30,0.00,,,0.04,VWS V14.01,2013-01-11 05:28:00,
2013-01-10 21:34:00,31.3,3.5,29.91,WNW,291,0.0,0.0,30,0.00,,,0.04,VWS V14.01,2013-01-11 05:34:00,
2013-01-10 21:39:00,31.1,3.3,29.91,WSW,251,0.0,0.0,30,0.00,,,0.04,VWS V14.01,2013-01-11 05:39:00,
2013-01-10 21:45:00,31.1,3.3,29.91,WSW,240,0.0,3.1,30,0.00,,,0.04,VWS V14.01,2013-01-11 05:45:00,
2013-01-10 21:51:00,31.3,3.5,29.91,WNW,288,4.9,6.3,30,0.00,,,0.04,VWS V14.01,2013-01-11 05:51:00,
2013-01-10 21:56:00,31.1,3.3,29.91,SSW,203,0.0,0.0,30,0.00,,,0.04,VWS V14.01,2013-01-11 05:56:00,
2013-01-10 22:01:00,30.9,3.1,29.91,SSW,206,4.0,4.9,30,0.00,,,0.04,VWS V14.01,2013-01-11 06:01:00,
2013-01-10 22:07:00,30.6,2.8,29.91,SSE,157,0.0,4.0,30,0.00,,,0.04,VWS V14.01,2013-01-11 06:07:00,
2013-01-10 22:12:00,30.6,2.8,29.91,SSE,157,0.0,0.0,30,0.00,,,0.04,VWS V14.01,2013-01-11 06:12:00,
2013-01-10 22:17:00,30.4,2.7,29.91,South,185,0.0,0.0,30,0.00,,,0.04,VWS V14.01,2013-01-11 06:17:00,
2013-01-10 22:22:00,30.4,2.7,29.91,SW,214,2.7,4.0,30,0.00,,,0.04,VWS V14.01,2013-01-11 06:22:00,
2013-01-10 22:28:00,30.6,2.8,29.91,WSW,251,0.0,0.0,30,0.00,,,0.04,VWS V14.01,2013-01-11 06:28:00,
2013-01-10 22:33:00,30.7,3.0,29.91,SSW,209,4.9,8.3,30,0.00,,,0.04,VWS V14.01,2013-01-11 06:33:00,
2013-01-10 22:38:00,30.4,2.7,29.91,SW,233,4.9,6.3,30,0.00,,,0.04,VWS V14.01,2013-01-11 06:38:00,
2013-01-10 22:43:00,30.6,2.8,29.91,SW,230,6.3,10.5,30,0.00,,,0.04,VWS V14.01,2013-01-11 06:43:00,
2013-01-10 22:49:00,30.2,2.5,29.91,SW,224,4.0,8.3,30,0.00,,,0.04,VWS V14.01,2013-01-11 06:49:00,
2013-01-10 22:54:00,30.2,3.2,29.91,WNW,284,0.0,3.6,31,0.00,,,0.04,VWS V14.01,2013-01-11 06:54:00,
2013-01-10 22:59:00,30.2,2.5,29.91,SW,215,5.8,5.8,30,0.00,,,0.04,VWS V14.01,2013-01-11 06:59:00,
2013-01-10 23:05:00,30.2,2.5,29.91,SSW,210,5.8,8.7,30,0.00,,,0.04,VWS V14.01,2013-01-11 07:05:00,
2013-01-10 23:10:00,30.0,2.3,29.91,WSW,246,4.0,4.0,30,0.00,,,0.04,VWS V14.01,2013-01-11 07:10:00,
2013-01-10 23:15:00,29.8,2.2,29.91,West,280,0.0,4.9,30,0.00,,,0.04,VWS V14.01,2013-01-11 07:15:00,
2013-01-10 23:20:00,29.7,2.0,29.91,WSW,254,0.0,0.0,30,0.00,,,0.04,VWS V14.01,2013-01-11 07:20:00,
2013-01-10 23:25:00,29.5,1.9,29.91,West,264,0.0,0.0,30,0.00,,,0.04,VWS V14.01,2013-01-11 07:25:00,
2013-01-10 23:30:00,29.3,1.7,29.91,WNW,283,0.0,0.0,30,0.00,,,0.04,VWS V14.01,2013-01-11 07:30:00,
2013-01-10 23:36:00,29.5,1.9,29.91,NW,325,0.0,0.0,30,0.00,,,0.04,VWS V14.01,2013-01-11 07:36:00,
2013-01-10 23:41:00,29.5,1.9,29.91,West,265,0.0,0.0,30,0.00,,,0.04,VWS V14.01,2013-01-11 07:41:00,
2013-01-10 23:47:00,29.5,1.9,29.91,SW,224,0.0,0.0,30,0.00,,,0.04,VWS V14.01,2013-01-11 07:47:00,
2013-01-10 23:52:00,29.5,1.9,29.91,WSW,254,0.0,0.0,30,0.00,,,0.04,VWS V14.01,2013-01-11 07:52:00,
2013-01-10 23:58:00,29.5,1.9,29.91,SW,219,0.0,0.0,30,0.00,,,0.04,VWS V14.01,2013-01-11 07:58:00,